Oxford, NC

2:50 AM EST on February 21, 2018 (GMT -0500)
Henderson-Oxford

Weather History for KHNZ - November, 2013

Change the Weather History Date:

Friday, November 8, 2013

  Actual Average (KTDF) Record (KTDF)
Temperature  
Mean Temperature 44 °F -  
Max Temperature 55 °F 61 °F 80 °F (2001)
Min Temperature 32 °F 36 °F 20 °F (1967)
Degree Days  
Heating Degree Days 22    
Moisture  
Dew Point 24 °F    
Average Humidity 46    
Maximum Humidity 85    
Minimum Humidity 25    
Precipitation  
Precipitation 0.00 in - - ()
Sea Level Pressure  
Sea Level Pressure 30.24 in    
Wind  
Wind Speed 5 mph (WNW)    
Max Wind Speed 13 mph    
Max Gust Speed 18 mph    
Visibility 10 miles    
Events      
Averages and records for this station are not official NWS values.
T = Trace of Precipitation, MM = Missing Value Source: NWS Daily Summary

Daily Weather History Graph

Daily Weather History Graph

Search for Another Location

Airport or City:

Trip Planner

Search our weather history database for the weather conditions in past years. The results will help you decide how hot, cold, wet, or windy it might be!

Date:

Astronomy

Nov. 08, 2013 Rise Set
Actual Time 6:44 AM EST 5:10 PM EST
Civil Twilight 6:17 AM EST 5:37 PM EST
Nautical Twilight 5:46 AM EST 6:08 PM EST
Astronomical Twilight 5:16 AM EST 6:38 PM EST
Moon 11:38 AM EST (11/8) 10:29 PM EST (11/8)
Length of Visible Light 11h 20m
Length of Day
10h 26m
Waxing Crescent, 33% of the Moon is Illuminated
Nov 8
Waxing Crescent
Nov 10
First Quarter
Nov 17
Full
Nov 25
Last Quarter
Dec 2
New

Hourly Weather History & Observations

Time (EST) Temp. Windchill Dew Point Humidity Pressure Visibility Wind Dir Wind Speed Gust Speed Precip Events Conditions
12:15 AM 44.8 °F 39.4 °F 28.4 °F 53% 30.11 in 10.0 mi NW 10.4 mph - N/A   Clear
12:35 AM 44.1 °F 40.8 °F 28.6 °F 55% 30.12 in 10.0 mi NW 5.8 mph - N/A   Clear
12:55 AM 43.7 °F 40.3 °F 28.6 °F 55% 30.12 in 10.0 mi NNW 5.8 mph - N/A   Clear
1:15 AM 43.3 °F 39.9 °F 28.4 °F 56% 30.13 in 10.0 mi NW 5.8 mph - N/A   Clear
1:35 AM 42.8 °F 39.3 °F 28.4 °F 57% 30.13 in 10.0 mi NW 5.8 mph - N/A   Clear
1:55 AM 42.3 °F 38.6 °F 28.4 °F 58% 30.15 in 10.0 mi NW 5.8 mph - N/A   Clear
2:15 AM 41.9 °F 39.0 °F 27.9 °F 58% 30.16 in 10.0 mi NW 4.6 mph - N/A   Clear
2:35 AM 41.4 °F 38.4 °F 27.3 °F 57% 30.17 in 10.0 mi NW 4.6 mph - N/A   Clear
2:55 AM 41.0 °F 38.0 °F 26.6 °F 57% 30.18 in 10.0 mi NW 4.6 mph - N/A   Clear
3:15 AM 41.2 °F 38.2 °F 26.1 °F 55% 30.19 in 10.0 mi NNW 4.6 mph - N/A   Clear
3:35 AM 40.6 °F 38.6 °F 25.7 °F 55% 30.19 in 10.0 mi NW 3.5 mph - N/A   Clear
3:55 AM 40.1 °F 36.9 °F 25.3 °F 56% 30.20 in 10.0 mi NW 4.6 mph - N/A   Clear
4:15 AM 39.4 °F 37.2 °F 25.5 °F 58% 30.20 in 10.0 mi NW 3.5 mph - N/A   Clear
4:35 AM 39.4 °F - 25.3 °F 57% 30.21 in 10.0 mi Calm Calm - N/A   Clear
4:55 AM 39.2 °F 37.0 °F 25.0 °F 57% 30.21 in 10.0 mi NW 3.5 mph - N/A   Clear
5:15 AM 39.0 °F - 24.8 °F 57% 30.21 in 10.0 mi Calm Calm - N/A   Clear
5:35 AM 37.9 °F - 24.8 °F 59% 30.22 in 10.0 mi Calm Calm - N/A   Clear
5:55 AM 35.8 °F 33.0 °F 25.9 °F 67% 30.22 in 10.0 mi WNW 3.5 mph - N/A   Clear
6:15 AM 35.8 °F - 25.5 °F 66% 30.23 in 10.0 mi Calm Calm - N/A   Clear
6:35 AM 32.9 °F 29.8 °F 26.8 °F 78% 30.23 in 10.0 mi West 3.5 mph - N/A   Clear
6:55 AM 33.8 °F 30.8 °F 26.6 °F 75% 30.23 in 10.0 mi West 3.5 mph - N/A   Clear
7:15 AM 32.4 °F 29.1 °F 28.4 °F 85% 30.24 in 10.0 mi WSW 3.5 mph - N/A   Clear
7:35 AM 36.1 °F 33.5 °F 28.9 °F 75% 30.24 in 10.0 mi WSW 3.5 mph - N/A   Clear
7:55 AM 38.8 °F 36.5 °F 27.5 °F 64% 30.25 in 10.0 mi WSW 3.5 mph - N/A   Clear
8:15 AM 41.4 °F 39.4 °F 27.5 °F 58% 30.26 in 10.0 mi West 3.5 mph - N/A   Clear
8:35 AM 44.2 °F 42.7 °F 27.3 °F 51% 30.27 in 10.0 mi West 3.5 mph - N/A   Clear
8:55 AM 46.2 °F 43.3 °F 26.1 °F 45% 30.27 in 10.0 mi West 5.8 mph - N/A   Clear
9:15 AM 47.7 °F - 25.5 °F 42% 30.27 in 10.0 mi WNW 4.6 mph - N/A   Clear
9:35 AM 49.1 °F - 24.1 °F 38% 30.27 in 10.0 mi NW 6.9 mph - N/A   Clear
9:55 AM 50.0 °F - 22.8 °F 34% 30.27 in 10.0 mi West 10.4 mph - N/A   Clear
10:15 AM 51.1 °F - 22.6 °F 33% 30.27 in 10.0 mi WNW 9.2 mph - N/A   Clear
10:35 AM 51.1 °F - 22.8 °F 33% 30.27 in 10.0 mi West 5.8 mph - N/A   Clear
10:55 AM 52.3 °F - 22.5 °F 31% 30.27 in 10.0 mi WNW 10.4 mph 16.1 mph N/A   Clear
11:15 AM 52.5 °F - 22.8 °F 31% 30.27 in 10.0 mi West 8.1 mph 17.3 mph N/A   Clear
11:35 AM 53.1 °F - 22.3 °F 30% 30.26 in 10.0 mi NNW 12.7 mph - N/A   Clear
11:55 AM 53.4 °F - 21.4 °F 29% 30.25 in 10.0 mi NW 5.8 mph 18.4 mph N/A   Clear
12:15 PM 53.6 °F - 21.7 °F 29% 30.24 in 10.0 mi WNW 5.8 mph 17.3 mph N/A   Clear
12:35 PM 54.3 °F - 22.5 °F 29% 30.24 in 10.0 mi WNW 11.5 mph 17.3 mph N/A   Clear
12:55 PM 54.9 °F - 22.1 °F 28% 30.23 in 10.0 mi West 9.2 mph 18.4 mph N/A   Clear
1:15 PM 54.3 °F - 21.0 °F 27% 30.23 in 10.0 mi NW 4.6 mph 17.3 mph N/A   Clear
1:35 PM 55.2 °F - 23.0 °F 29% 30.22 in 10.0 mi West 4.6 mph - N/A   Clear
1:55 PM 54.9 °F - 22.3 °F 28% 30.22 in 10.0 mi West 11.5 mph 17.3 mph N/A   Clear
2:15 PM 54.7 °F - 21.9 °F 28% 30.22 in 7.0 mi WNW 10.4 mph - N/A   Clear
2:35 PM 55.2 °F - 21.4 °F 27% 30.22 in 10.0 mi NW 9.2 mph - N/A   Clear
2:55 PM 54.9 °F - 19.4 °F 25% 30.22 in 10.0 mi WNW 10.4 mph - N/A   Clear
3:15 PM 54.5 °F - 19.6 °F 26% 30.22 in 10.0 mi WNW 10.4 mph 16.1 mph N/A   Clear
3:35 PM 54.0 °F - 19.4 °F 26% 30.22 in 10.0 mi WNW 9.2 mph - N/A   Clear
3:55 PM 53.8 °F - 20.3 °F 27% 30.23 in 10.0 mi NW 6.9 mph - N/A   Clear
4:15 PM 52.7 °F - 20.5 °F 28% 30.23 in 10.0 mi NW 9.2 mph 16.1 mph N/A   Clear
4:35 PM 52.2 °F - 19.9 °F 28% 30.24 in 10.0 mi NW 6.9 mph - N/A   Clear
4:55 PM 50.4 °F - 20.7 °F 31% 30.25 in 10.0 mi NW 4.6 mph - N/A   Clear
5:15 PM 49.5 °F - 20.8 °F 32% 30.25 in 10.0 mi Calm Calm - N/A   Clear
5:35 PM 47.5 °F - 21.7 °F 36% 30.25 in 10.0 mi Calm Calm - N/A   Clear
5:55 PM 47.3 °F - 22.5 °F 38% 30.27 in 10.0 mi NW 3.5 mph - N/A   Clear
6:15 PM 46.8 °F - 22.1 °F 38% 30.27 in 10.0 mi Calm Calm - N/A   Clear
6:35 PM 45.5 °F 43.2 °F 23.0 °F 41% 30.28 in 10.0 mi WNW 4.6 mph - N/A   Clear
6:55 PM 44.4 °F - 23.0 °F 43% 30.28 in 10.0 mi Calm Calm - N/A   Clear
7:15 PM 43.0 °F - 23.7 °F 47% 30.29 in 10.0 mi Calm Calm - N/A   Clear
7:35 PM 43.2 °F - 23.5 °F 46% 30.29 in 10.0 mi Calm Calm - N/A   Clear
7:55 PM 41.2 °F - 24.4 °F 51% 30.29 in 10.0 mi Calm Calm - N/A   Clear
8:15 PM 43.2 °F 41.5 °F 21.9 °F 43% 30.29 in 10.0 mi WNW 3.5 mph - N/A   Clear
8:35 PM 40.6 °F - 25.7 °F 55% 30.30 in 10.0 mi Calm Calm - N/A   Clear
8:55 PM 39.2 °F 37.0 °F 25.3 °F 58% 30.31 in 10.0 mi WNW 3.5 mph - N/A   Clear
9:15 PM 42.1 °F 40.2 °F 22.5 °F 46% 30.31 in 10.0 mi NW 3.5 mph - N/A   Clear
9:35 PM 42.3 °F - 21.9 °F 44% 30.32 in 10.0 mi Calm Calm - N/A   Clear
9:55 PM 40.6 °F - 23.2 °F 50% 30.32 in 10.0 mi Calm Calm - N/A   Clear
10:15 PM 39.4 °F 37.2 °F 23.7 °F 54% 30.32 in 10.0 mi NW 3.5 mph - N/A   Clear
10:35 PM 37.8 °F - 26.4 °F 64% 30.32 in 10.0 mi Calm Calm - N/A   Clear
10:55 PM 39.2 °F 35.9 °F 24.3 °F 55% 30.32 in 10.0 mi NW 4.6 mph - N/A   Clear
11:15 PM 40.6 °F 37.5 °F 23.0 °F 49% 30.32 in 10.0 mi NNW 4.6 mph - N/A   Clear
11:35 PM 39.6 °F - 23.9 °F 54% 30.32 in 10.0 mi Calm Calm - N/A   Clear
11:55 PM 39.4 °F - 22.8 °F 52% 30.32 in 10.0 mi Calm Calm - N/A   Clear